Regional Weather Roundup
Issued by NWS

Home | Current Version | Previous Version | Text Only | Print | Product List | Glossary Off
Versions: 1 2 3 4 5 6 7 8 9 10 11 12 13 14 15 16 17 18 19 20 21 22 23 24 25 26 27

000
ASUS45 KBOU 260107
RWRCO

WEATHER ROUNDUP FOR COLORADO
NATIONAL WEATHER SERVICE DENVER/BOULDER CO
700 PM MDT THU AUG 25 2016

NOTE: "FAIR" INDICATES FEW OR NO CLOUDS BELOW 12000 FEET WITH NO
SIGNIFICANT WEATHER AND/OR OBSTRUCTIONS TO VISIBILITY.

COZ001>005-013-030-031-260200-
...NORTHWEST COLORADO...

CITY           SKY/WX    TMP DP  RH WIND       PRES   REMARKS
CRAIG          MOCLDY    67  31  26 W7        30.18R
HAYDEN         FAIR      64  28  25 W5        30.20R
MEEKER         MOCLDY    64  38  38 S8        30.20R
MOUNT WERNER   NOT AVBL
STEAMBOAT SPGS FAIR      64  31  29 W5        30.21S
WALDEN         FAIR      55  32  41 SE3       30.29R
$$

COZ006>008-011-260200-
...WEST CENTRAL VALLEYS...

CITY           SKY/WX    TMP DP  RH WIND       PRES   REMARKS
GRAND JUNCTION LGT RAIN  58  53  84 NE15      30.21F
MONTROSE       LGT RAIN  58  48  69 N12       30.28R
EAGLE          CLOUDY    59  46  63 S13G21    30.26R
RIFLE          RAIN      55  49  80 W20G35    30.27R
DELTA          CLOUDY    64  44  48 NW29G38   30.17F
NUCLA          DRIZZLE   59  45  58 W8        30.28R
$$

COZ017>023-064>068-260200-
...SOUTHWEST COLORADO...

CITY           SKY/WX    TMP DP  RH WIND       PRES   REMARKS
DURANGO        LGT RAIN  66  42  41 N6        30.21S
CORTEZ         CLOUDY    67  42  40 NW12G40   30.20R
PAGOSA SPRINGS FAIR      62  42  47 CALM      30.29S
TELLURIDE      FAIR      54  38  55 W15G26    30.39R
WOLF CREEK PAS FAIR      41  32  70 SW9       30.56S
$$

COZ009-010-012-014-032>034-037-058>063-260200-
...CENTRAL COLORADO...

CITY           SKY/WX    TMP DP  RH WIND       PRES   REMARKS
ASPEN          LGT RAIN  52  43  71 W6G18     30.35R
BUENA VISTA    FAIR      57  41  55 SE5       30.32S
COPPER MTN     CLOUDY    46  32  57 NW9       30.52S
BERTHOUD PASS  HAZE      32  19  59 E9        30.55F VSB 1/2 WCI  24
COTTONWOOD PAS FAIR      52  41  66 E3        30.42R
GUNNISON       MOCLDY    61  39  44 N3        30.31R
KREMMLING      FAIR      59  37  44 E5        30.27S
LEADVILLE      CLOUDY    49  36  61 SW8       30.39R
MONARCH PASS   FAIR      41  37  87 CALM      30.64S
SALIDA         FAIR      57  44  62 E8G20     30.37S
SUNLIGHT       RAIN      43  41  93 NE8       30.52R
WILKERSON PASS FAIR      37  36  93 S5        30.52F FOG
$$

COZ069>075-260200-
...SAN LUIS VALLEY/SANGRE DE CRISTO MOUNTAINS...

CITY           SKY/WX    TMP DP  RH WIND       PRES   REMARKS
ALAMOSA        FAIR      62  41  46 NE9       30.28S
LA VETA PASS   FAIR      45  37  76 CALM      30.46S
SAGUACHE       FAIR      59  41  51 SE8       30.31F
$$

COZ035-036-038>040-260200-
...NORTHERN COLORADO FRONT RANGE...

CITY           SKY/WX    TMP DP  RH WIND       PRES   REMARKS
DENVER INTL AP MOCLDY    59  51  75 E5        30.24R
DMNS CITY PARK   N/A     60  50  71 E6        30.24S
AURORA         MOCLDY    59  51  76 S9        30.26R
FRONT RANGE AP MOCLDY    61  54  77 E9        30.25R
ERIE MUNI ARPT FAIR      63  48  59 CALM      30.22F
BOULDER MUN AP FAIR      63  46  55 SE3       30.22F
CENTENNIAL     MOCLDY    60  49  66 S6        30.25F
BROOMFIELD     MOCLDY    61  50  67 VRB3      30.25S
FORT COLLINS   FAIR      63  50  63 S9        30.21R
LONGMONT       FAIR      65  50  57 S5        30.23F
$$

COZ041-046-047-076>085-087-088-260200-
...PIKES PEAK/PALMER DIVIDE AND SOUTHERN FOOTHILLS...

CITY           SKY/WX    TMP DP  RH WIND       PRES   REMARKS
COLO. SPRINGS  MOCLDY    58  46  64 NW13      30.29S
A. F. ACADEMY  FAIR      54  48  80 N8        30.29F
SCHRIEVER AFB  NOT AVBL
ELLICOTT       MIX PCPN N/A N/A N/A NW6       30.27R
FALCON         MOCLDY    53  45  75 NW5       30.31S
FORT CARSON    LGT RAIN  57  49  74 NW9       30.26S
LIMON          LGT RAIN  57  53  86 N7        30.24F
MONUMENT HILL  FAIR      50  45  81 CALM      30.32F
TRINIDAD       LGT RAIN  67  42  40 SE8G16    30.20F
$$

COZ042>045-048>051-090-091-260200-
...NORTHEAST COLORADO...

CITY           SKY/WX    TMP DP  RH WIND       PRES   REMARKS
GREELEY ARPT   FAIR      64  48  55 S14       30.22R
AKRON          FAIR      69  41  36 SE9       30.20R
BURLINGTON     FAIR      69  48  47 E9        30.20R
WRAY           NOT AVBL
STERLING       FAIR      70  45  40 SE6       30.15S
HOLYOKE        FAIR      72  46  40 SE8       30.18S
FORT MORGAN    LGT RAIN  57  51  81 S6        30.20F
$$

COZ086-089-092>099-260200-
...SOUTHEAST COLORADO...

CITY           SKY/WX    TMP DP  RH WIND       PRES   REMARKS
PUEBLO         LGT RAIN  65  51  60 N10       30.20R
LA JUNTA       FAIR      72  54  53 E17       30.16R
LAMAR          FAIR      70  57  63 E10       30.14S
SPRINGFIELD      N/A     63  58  83 E13       30.16F
$$




USA.gov is the U.S. government's official web portal to all federal, state and local government web resources and services.